Lid_Strength_Index
3 2 2 2 2 2 2 2 2 2 2 2 1 2 3 3 3 2 2 2 2 2 2 3 2 1 5 10 9 3 1 1 3 4 7 9 11 11 13 12 12 13 12 11 11 11 12
3 3 3 3 2 2 2 2 2 2 2 2 2 2 2 3 3 3 3 3 2 2 2 2 2 1 6 11 6 4 4 4 4 6 8 8 11 10 12 12 13 12 12 12 12 12 12
3 3 3 2 2 2 2 2 2 2 2 1 2 3 2 2 3 3 3 3 3 2 2 2 2 1 7 8 6 5 5 6 6 7 8 8 8 10 11 13 11 12 14 14 13 12 13
3 3 3 3 3 3 3 2 2 2 2 2 2 2 3 3 3 3 3 2 3 2 2 3 2 3 8 3 6 6 6 6 6 6 8 7 7 9 11 11 12 14 15 17 14 13 12
4 4 4 4 4 4 4 3 3 3 2 2 2 2 2 2 3 3 4 3 2 2 2 3 5 6 9 3 6 6 6 8 8 7 8 7 8 10 11 14 16 16 19 17 15 13 13
5 5 5 5 5 4 4 4 4 4 3 3 2 2 3 3 3 3 4 4 2 2 4 4 4 9 7 7 6 6 5 7 9 10 10 10 12 14 14 16 20 18 18 16 17 15 15
5 5 5 6 6 6 5 5 5 4 4 4 3 3 2 2 3 3 4 7 10 9 8 9 9 9 7 6 5 7 5 6 8 10 15 13 16 17 15 14 15 16 17 18 16 14 15
4 5 5 5 5 5 5 6 5 5 5 4 4 3 3 3 2 3 5 8 9 8 11 8 8 7 6 6 9 7 6 10 10 13 12 14 17 15 14 14 14 15 17 17 15 14 16
4 4 4 4 5 5 5 5 5 5 5 5 5 4 4 2 2 4 6 7 5 5 11 11 8 9 7 6 8 9 8 9 12 13 13 15 14 13 13 15 16 16 17 17 17 15 16
3 3 3 4 4 5 5 5 5 5 5 5 5 5 4 2 5 7 7 4 4 4 15 16 12 10 7 7 9 6 7 9 12 13 13 13 11 12 14 15 15 18 15 14 15 17 20
2 3 3 3 3 4 4 5 4 4 4 5 4 4 3 2 6 8 6 4 2 5 26 15 13 7 8 10 9 8 6 9 13 13 13 15 13 13 14 13 12 15 14 15 15 17 19
2 2 2 1 2 2 2 2 2 3 3 3 3 3 3 3 4 5 3 3 5 14 24 17 12 12 12 11 10 8 9 8 9 11 12 13 11 12 12 11 11 12 14 16 16 18 25
1 1 1 -0 -1 -2 -1 -1 -0 0 1 1 1 1 1 2 6 2 3 5 14 18 15 18 14 12 13 13 12 10 11 13 14 16 17 14 14 13 11 13 12 13 15 22 23 24 24
1 -1 -2 -2 -2 -2 -2 -2 -2 -2 -1 -1 0 0 1 1 1 1 2 10 17 18 16 11 12 11 13 12 12 11 12 14 12 13 15 17 20 14 13 14 15 15 15 19 23 22 20
0 -2 -2 -2 -2 -2 -2 -2 -2 -2 -2 -2 -1 2 2 2 2 0 7 15 15 15 12 13 11 14 14 11 12 12 12 13 12 12 17 17 17 13 12 12 12 15 17 13 18 22 20
-1 -1 -1 -2 -2 -2 -2 -2 -2 -2 -2 -2 2 3 4 2 2 3 10 13 12 9 10 11 15 12 15 13 13 13 13 11 12 10 10 13 18 14 13 11 12 14 12 17 18 24 23
-2 -2 -2 -2 -2 -2 -2 -2 -2 -2 -2 -2 2 6 3 1 2 7 13 13 11 9 9 11 12 13 12 13 12 13 13 11 10 10 9 12 14 16 13 15 15 15 16 15 15 17 20
-2 -2 -2 -2 -2 -2 -2 -2 -2 -2 -2 0 4 9 3 1 9 9 12 12 8 9 8 9 10 11 12 11 13 13 13 11 8 8 11 10 13 18 16 13 12 12 14 13 17 21 18
-2 -2 -2 -2 -2 -2 -2 -2 -2 -2 -1 2 6 7 3 2 12 12 11 11 9 10 10 10 11 10 10 12 14 12 11 8 8 8 10 9 14 20 16 13 13 15 14 13 14 16 18
-2 -2 -2 -2 -2 -2 -2 -2 -2 -2 -1 1 6 12 7 6 7 10 15 14 11 8 9 9 11 10 12 14 12 13 12 9 7 8 7 8 12 14 17 16 14 16 15 13 14 19 17
-2 -2 -2 -2 -2 -2 -2 -2 -1 -1 -1 2 6 12 10 12 12 10 10 14 13 14 9 9 10 11 12 15 14 14 11 11 9 7 8 10 15 13 12 13 12 13 15 14 16 14 17
-2 -2 -2 -2 -2 -2 -2 -1 -1 -1 -1 3 7 9 7 15 10 10 9 10 12 11 12 12 12 11 11 14 13 14 12 11 12 10 10 9 15 14 15 12 12 14 13 13 13 14 14
-2 -2 -2 -2 -2 -1 -1 -1 -1 -1 -1 4 4 4 7 9 12 11 11 11 10 9 9 9 10 11 12 10 9 9 9 10 10 12 12 12 14 15 17 14 14 17 14 13 13 13 13
-2 -2 -2 -2 -2 -1 -1 -1 -1 -1 -1 3 3 4 9 12 10 10 9 9 9 8 10 8 8 9 8 6 7 7 9 10 10 11 10 13 13 14 17 16 21 14 9 10 12 11 11
-2 -2 -2 -1 -1 -1 -1 -1 -1 -1 -1 2 2 4 7 12 9 9 9 9 8 8 8 8 7 6 5 8 12 15 15 15 15 10 10 10 12 15 17 21 15 13 12 11 12 12 10
-1 -2 -1 -1 -1 -1 -1 -1 -1 -1 -1 1 2 2 5 10 11 7 9 8 12 13 12 8 6 5 5 9 13 17 19 18 23 19 10 10 11 14 17 20 20 15 12 9 9 15 9
-1 -1 -1 -1 -1 -1 -1 -1 -1 -1 -1 1 3 1 4 8 9 7 11 10 8 10 12 11 8 8 6 11 14 15 16 15 19 20 20 16 15 16 16 17 16 13 12 9 17 14 9
-1 -1 -1 -1 -1 -1 -0 -0 -1 -1 -1 1 4 0 4 9 9 6 6 9 10 9 12 11 11 12 15 12 14 14 15 14 16 15 17 17 17 16 19 18 19 11 12 14 11 9 9
-1 -1 -1 -0 -1 -0 -0 -0 -0 -1 -1 -0 4 1 0 5 8 5 4 4 4 5 8 8 9 10 9 14 14 13 18 13 14 17 11 15 13 15 14 14 10 10 10 9 8 8 9